Ridgeville, SC

12:25 PM EST on February 13, 2016 (GMT -0500)
Summerville

Weather History for KDYB - April, 2013

Change the Weather History Date:

Friday, April 26, 2013

  Actual Average (KCHS) Record (KCHS)
Temperature  
Mean Temperature 66 °F 67 °F  
Max Temperature 77 °F 79 °F 92 °F (1989)
Min Temperature 53 °F 56 °F 43 °F (1974)
Degree Days  
Heating Degree Days 0 2  
Month to date heating degree days 84  
Since 1 July heating degree days 1959  
Cooling Degree Days 1 4  
Month to date cooling degree days 68  
Year to date cooling degree days 102  
Growing Degree Days 16 (Base 50)    
Moisture  
Dew Point 52 °F    
Average Humidity 68    
Maximum Humidity 100    
Minimum Humidity 28    
Precipitation  
Precipitation 0.00 in 0.09 in 1.89 in (1965)
Month to date precipitation 2.53  
Year to date precipitation 12.91  
Sea Level Pressure  
Sea Level Pressure 30.31 in    
Wind  
Wind Speed 3 mph (ENE)    
Max Wind Speed 8 mph    
Max Gust Speed -    
Visibility 9 miles    
Events Fog    
T = Trace of Precipitation, MM = Missing Value Source: NWS Daily Summary

Daily Weather History Graph

Daily Weather History Graph

Search for Another Location

Airport or City:

Trip Planner

Search our weather history database for the weather conditions in past years. The results will help you decide how hot, cold, wet, or windy it might be!

Date:

Astronomy

Apr. 26, 2013 Rise Set
Actual Time 6:38 AM EDT 7:59 PM EDT
Civil Twilight 6:12 AM EDT 8:25 PM EDT
Nautical Twilight 5:41 AM EDT 8:57 PM EDT
Astronomical Twilight 5:08 AM EDT 9:29 PM EDT
Moon 9:16 PM EDT (4/26) 7:07 AM EDT (4/26)
Length of Visible Light 14h 13m
Length of Day
13h 21m
Full, 99% of the Moon is Illuminated
Apr 26
Full
May 2
Last Quarter
May 9
New
May 18
First Quarter
May 25
Full

Hourly Weather History & Observations

Time (EDT) Temp. Dew Point Humidity Pressure Visibility Wind Dir Wind Speed Gust Speed Precip Events Conditions
12:15 AM 62.6 °F 62.6 °F 100% 30.23 in 0.5 mi NNE 4.6 mph - N/A Fog Fog
12:35 AM 62.6 °F 62.6 °F 100% 30.23 in 0.5 mi Calm Calm - N/A Fog Fog
12:55 AM 60.8 °F 60.8 °F 100% 30.24 in 0.8 mi NNE 3.5 mph - N/A   Overcast
1:15 AM 60.8 °F 60.8 °F 100% 30.24 in 1.8 mi ENE 3.5 mph - N/A   Overcast
1:35 AM 60.8 °F 60.8 °F 100% 30.24 in 3.0 mi Calm Calm - N/A   Overcast
1:55 AM 60.8 °F 60.8 °F 100% 30.24 in 7.0 mi NNE 3.5 mph - N/A   Overcast
2:15 AM 60.8 °F 60.8 °F 100% 30.23 in 7.0 mi Calm Calm - N/A   Overcast
2:35 AM 60.8 °F 60.8 °F 100% 30.23 in 7.0 mi Calm Calm - N/A   Overcast
2:55 AM 60.8 °F 60.8 °F 100% 30.23 in 7.0 mi Calm Calm - N/A   Overcast
3:15 AM 60.8 °F 60.8 °F 100% 30.23 in 7.0 mi ENE 3.5 mph - N/A   Overcast
3:35 AM 60.8 °F 60.8 °F 100% 30.23 in 10.0 mi NNE 4.6 mph - N/A   Overcast
3:55 AM 60.8 °F 60.8 °F 100% 30.24 in 10.0 mi NNE 3.5 mph - N/A   Overcast
4:15 AM 60.8 °F 60.8 °F 100% 30.24 in 7.0 mi NNE 3.5 mph - N/A   Overcast
4:35 AM 60.8 °F 60.8 °F 100% 30.25 in 7.0 mi NNE 3.5 mph - N/A   Overcast
4:55 AM 60.8 °F 60.8 °F 100% 30.25 in 10.0 mi Calm Calm - N/A   Overcast
5:15 AM 60.8 °F 60.8 °F 100% 30.25 in 10.0 mi NE 3.5 mph - N/A   Overcast
5:35 AM 60.8 °F 60.8 °F 100% 30.26 in 10.0 mi NNE 3.5 mph - N/A   Overcast
5:55 AM 60.8 °F 60.8 °F 100% 30.26 in 10.0 mi Calm Calm - N/A   Overcast
6:15 AM 60.8 °F 60.8 °F 100% 30.27 in 10.0 mi North 5.8 mph - N/A   Overcast
6:35 AM 59.0 °F 59.0 °F 100% 30.28 in 10.0 mi ENE 3.5 mph - N/A   Overcast
6:55 AM 59.0 °F 59.0 °F 100% 30.30 in 10.0 mi Calm Calm - N/A   Overcast
7:15 AM 59.0 °F 59.0 °F 100% 30.31 in 10.0 mi Calm Calm - N/A   Overcast
7:35 AM 60.8 °F 59.0 °F 94% 30.32 in 10.0 mi Calm Calm - N/A   Overcast
7:55 AM 60.8 °F 59.0 °F 94% 30.33 in 10.0 mi Calm Calm - N/A   Overcast
8:15 AM 60.8 °F 60.8 °F 100% 30.34 in 10.0 mi North 3.5 mph - N/A   Overcast
8:35 AM 62.6 °F 60.8 °F 94% 30.35 in 10.0 mi NNE 4.6 mph - N/A   Overcast
8:55 AM 62.6 °F 59.0 °F 88% 30.35 in 10.0 mi NE 4.6 mph - N/A   Mostly Cloudy
9:15 AM 64.4 °F 59.0 °F 83% 30.35 in 10.0 mi NNE 4.6 mph - N/A   Mostly Cloudy
9:35 AM 64.4 °F 59.0 °F 83% 30.36 in 10.0 mi NE 5.8 mph - N/A   Scattered Clouds
9:55 AM 66.2 °F 59.0 °F 78% 30.37 in 10.0 mi NE 6.9 mph - N/A   Scattered Clouds
10:15 AM 68.0 °F 57.2 °F 68% 30.37 in 10.0 mi NNE 4.6 mph - N/A   Scattered Clouds
10:35 AM 68.0 °F 59.0 °F 73% 30.38 in 10.0 mi North 6.9 mph - N/A   Clear
10:55 AM 69.8 °F 53.6 °F 56% 30.39 in 10.0 mi ENE 4.6 mph - N/A   Clear
11:15 AM 69.8 °F 53.6 °F 56% 30.39 in 10.0 mi ENE 8.1 mph - N/A   Clear
11:35 AM 69.8 °F 51.8 °F 53% 30.39 in 10.0 mi ENE 5.8 mph - N/A   Clear
11:55 AM 71.6 °F 51.8 °F 50% 30.38 in 10.0 mi ESE 4.6 mph - N/A   Clear
12:15 PM 71.6 °F 51.8 °F 50% 30.37 in 10.0 mi ENE 6.9 mph - N/A   Clear
12:35 PM 73.4 °F 50.0 °F 44% 30.36 in 10.0 mi ENE 6.9 mph - N/A   Clear
12:55 PM 73.4 °F 46.4 °F 38% 30.35 in 10.0 mi SE 5.8 mph - N/A   Clear
1:15 PM 73.4 °F 50.0 °F 44% 30.34 in 10.0 mi East 3.5 mph - N/A   Clear
1:35 PM 75.2 °F 50.0 °F 41% 30.34 in 10.0 mi ENE 6.9 mph - N/A   Clear
1:55 PM 75.2 °F 46.4 °F 36% 30.34 in 10.0 mi East 3.5 mph - N/A   Clear
2:15 PM 77.0 °F 44.6 °F 32% 30.34 in 10.0 mi ENE 3.5 mph - N/A   Clear
2:35 PM 77.0 °F 42.8 °F 29% 30.34 in 10.0 mi NE 4.6 mph - N/A   Clear
2:55 PM 77.0 °F 41.0 °F 28% 30.34 in 10.0 mi East 4.6 mph - N/A   Clear
3:15 PM 77.0 °F 42.8 °F 29% 30.33 in 10.0 mi NNE 6.9 mph - N/A   Clear
3:35 PM 77.0 °F 41.0 °F 28% 30.33 in 10.0 mi East 8.1 mph - N/A   Clear
3:55 PM 77.0 °F 42.8 °F 29% 30.32 in 10.0 mi ENE 4.6 mph - N/A   Clear
4:15 PM 77.0 °F 42.8 °F 29% 30.31 in 10.0 mi East 4.6 mph - N/A   Clear
4:35 PM 77.0 °F 41.0 °F 28% 30.31 in 10.0 mi East 4.6 mph - N/A   Clear
4:55 PM 77.0 °F 41.0 °F 28% 30.31 in 10.0 mi Calm Calm - N/A   Clear
5:15 PM 77.0 °F 42.8 °F 29% 30.31 in 10.0 mi ENE 3.5 mph - N/A   Clear
5:35 PM 77.0 °F 42.8 °F 29% 30.31 in 10.0 mi East 5.8 mph - N/A   Clear
5:55 PM 75.2 °F 42.8 °F 31% 30.30 in 10.0 mi Calm Calm - N/A   Clear
6:15 PM 73.4 °F 42.8 °F 33% 30.30 in 10.0 mi East 5.8 mph - N/A   Clear
6:35 PM 73.4 °F 42.8 °F 33% 30.30 in 10.0 mi East 3.5 mph - N/A   Clear
6:55 PM 73.4 °F 42.8 °F 33% 30.30 in 10.0 mi SE 5.8 mph - N/A   Clear
7:15 PM 71.6 °F 42.8 °F 35% 30.32 in 10.0 mi SSE 5.8 mph - N/A   Clear
7:35 PM 69.8 °F 42.8 °F 38% 30.33 in 10.0 mi SE 4.6 mph - N/A   Clear
7:55 PM 68.0 °F 42.8 °F 40% 30.34 in 10.0 mi SE 5.8 mph - N/A   Clear
8:15 PM 66.2 °F 42.8 °F 43% 30.34 in 10.0 mi ESE 5.8 mph - N/A   Clear
8:35 PM 64.4 °F 42.8 °F 45% 30.35 in 10.0 mi ESE 3.5 mph - N/A   Clear
8:55 PM 62.6 °F 42.8 °F 48% 30.35 in 10.0 mi ESE 5.8 mph - N/A   Clear
9:15 PM 62.6 °F 44.6 °F 52% 30.36 in 10.0 mi Calm Calm - N/A   Clear
9:35 PM 60.8 °F 44.6 °F 55% 30.36 in 10.0 mi East 3.5 mph - N/A   Clear
9:55 PM 59.0 °F 46.4 °F 63% 30.37 in 10.0 mi Calm Calm - N/A   Clear
10:15 PM 57.2 °F 50.0 °F 77% 30.37 in 10.0 mi Calm Calm - N/A   Clear
10:35 PM 55.4 °F 50.0 °F 82% 30.36 in 10.0 mi Calm Calm - N/A   Clear
10:55 PM 57.2 °F 50.0 °F 77% 30.35 in 10.0 mi ESE 3.5 mph - N/A   Clear
11:15 PM 57.2 °F 51.8 °F 82% 30.34 in 10.0 mi Calm Calm - N/A   Clear
11:35 PM 55.4 °F 51.8 °F 88% 30.34 in 10.0 mi Calm Calm - N/A   Clear
11:55 PM 53.6 °F 51.8 °F 94% 30.34 in 10.0 mi Calm Calm - N/A   Clear